{"data":{"norad_id":59448,"intl_designator":"2024-066G","name":"HAWK-9C","alt_names":[],"object_type":"PAYLOAD","status":"ACTIVE","operator":null,"country":"US","launch_date":"2024-04-07","launch_site_code":"AFETR","launch_vehicle":null,"mission":null,"orbit_class":"UNKNOWN","rcs_meters":null,"size_class":null,"mass_kg":null,"dimensions":null,"purposes":[],"wikipedia_slug":null,"has_3d_model":false,"image_url":null,"decayed_at":null,"tle_current":{"epoch":"2026-09-22T08:27:16.019136Z","epoch_age_seconds":103481,"freshness":"FRESH","line1":"1 59448U 24066G   26265.35226874  .00000793  00000+0  82471-4 0  9990","line2":"2 59448  45.6090 134.0122 0003028 195.5723 164.5066 14.99384243134412","mean_motion":14.99384243,"eccentricity":0.0003028,"inclination_deg":45.609,"raan_deg":134.0122,"arg_perigee_deg":195.5723,"mean_anomaly_deg":164.5066,"bstar":8.2471e-5,"rev_number":13441,"period_min":96.039424631995,"perigee_km":566.69411000027,"apogee_km":570.90117361935,"semimajor_km":6946.9346418098,"source":"CELESTRAK","updated_at":"2026-09-23T09:00:19.375345Z"}}}